CZ-6A DEB

Satellite information

Favourite Embed

Satellite Type and Status

DEBRISIN ORBIT

Key statistics

Satellite CZ-6A DEB at a glance.

Uptime

1072

Days in orbit

Revolutions

≈ 14.2

Per day

Orbit

SSO

Sun Synchronous Orbit

Inclination

98.8

Latest

Satellite identification and parameters

Extended collection of information and parameters for CZ-6A DEB.

Object identification

Identified? True

Debris? True

Object name: CZ-6A DEB

International designator: 2022-151PP

Object number (NORAD): 54637

Object ID (CCSDS): 54637

Country: PEOPLES REPUBLIC OF CHINA (PRC)

Current information (Y/N): Y

RCS size: SMALL

Orbital parameters

Period: 101.605 minutes

Inclination: 98.8391 deg

SMA: 7212.806 km

Apoapsis: 879.649 km

Periapsis: 789.694 km

RAAN: 292.799 deg

Eccentricy: 0.00623578

Argument of periapsis: 317.107 deg

Mean anomaly: 42.525 deg

Mean motion: 14.17249712 rev/day

Mean motion (dot): 0.00008232 rev/day2

B* drag term: 0.0040180324 1/REarth

Two-line elements (TLE)

Creation date: Oct. 18, 2025, 2:17 a.m.

Reference frame: TEME

Reference center: EARTH

Epoch: Oct. 17, 2025, 11:12 p.m. UTC

TLE line 0: 0 CZ-6A DEB

TLE line 1: 1 54637U 22151PP 25290.96734823 .00008232 00000-0 40180-2 0 9996

TLE line 2: 2 54637 98.8391 292.7990 0062358 317.1070 42.5250 14.17249712149691

Live tracking on map

Real-time ground track for satellite CZ-6A DEB.

In-orbit conjunctions

A list of the most updated potential collisions computed for object CZ-6A DEB.

Target Orbit TCA Probability of collision Miss distance Type
COSMOS 2251 DEB LEO 2025-08-14 02:07:40 0.0001280412 61.0 (m) DEBRIS
CZ-6A DEB LEO 2025-02-28 03:09:24 0.0001034858 951.0 (m) DEBRIS

Associated space launch

Chinese satellite reported for atmospheric/ocean/environmental/spatial parameter research purposes, details TBD.

CZ-6A DEB was lifted into orbit during the mission ‘Long March 6A | Yunhai 3’, on board a Long March 6A space rocket.

The launch took place on Nov. 11, 2022, 10:52 p.m. from Launch Complex 9A.

For more information about the launch, click the button.

Launch to space Long March 6A | Yunhai 3
Long March 6A | Yunhai 3

Agency: N/A

Status: Launch Successful

Launch date: Nov. 11, 2022, 10:52 p.m. UTC

Rocket: Long March 6A

Launch pad: Launch Complex 9A

Location: Taiyuan Satellite Launch Center, People's Republic of China

...

Latest news about this satellite

There are no fresh news available about this satellite. Check back as we update our databases every day.


Newsletter sign-up

Weekly statistics, charts and insights to help you stay on top of the space industry.